Tracking 30995 objects as of 6-Jul-2025
HD Live streaming from Space Station
objects crossing your sky now

COSMOS 736

Track COSMOS 736 now!
10-day predictions
COSMOS 736 is classified as:


NORAD ID: 7825
Int'l Code: 1975-045E
Perigee: 1,475.8 km
Apogee: 1,493.6 km
Inclination: 74.0 °
Period: 115.5 minutes
Semi major axis: 7855 km
RCS: 0.6859 m2 (medium)
Launch date: May 28, 1975
Source: Commonwealth of Independent States (former USSR) (CIS)
Launch site: PLESETSK MISSILE AND SPACE COMPLEX (PKMTR)
Your satellite tracking list
Your tracking list is empty




NASA's NSSDC Master Catalog

Two Line Element Set (TLE):
1 07825U 75045E   25187.45389198  .00000008  00000-0  16462-3 0  9993
2 07825  74.0149 187.3075 0011316 286.7760 186.7311 12.46882812280849
Source of the keplerian elements: AFSPC